Вернуться в каталог

MISRSAT-2

АктивенНаукаSSO
NORAD 58497·PAYLOAD·🇪🇬 Egypt

Запущен Dec 4, 2023 с Jiuquan Satellite Launch Center

Loading…

Ближайшие Пролёты (ближайшие 24 часа)

TLE

СвежийSource: Space-Track

Эпоха: Sep 14, 2026, 15:22 UTC

1 58497U 23187B   26257.64093881  .00000846  00000-0  10960-3 0  9992
2 58497  97.9224 338.8632 0010274 208.4601 151.6053 14.83416257150307

Отслеживайте MISRSAT-2 в реальном времени с AllMySat

Download on the App Store